KJ4AJP Weather Reports


time (UTC)temp
C
wind
direction
speed
KPH
gust
KPH
rain 1hr
cm
rain 24hr
cm
rain mn
cm
humidity
%
barometer
mb
20260831170442 33 299 6.4 6.4 0.00 0.00 0.00 50 1019.4
20260831165938 33 26 3.2 4.8 0.00 0.00 0.00 52 1019.3
20260831165434 33 59 0.0 0.0 0.00 0.00 0.00 56 1019.5
20260831164931 33 265 4.8 4.8 0.00 0.00 0.00 56 1019.4
20260831164427 33 83 1.6 3.2 0.00 0.00 0.00 54 1019.7
20260831163927 33 0 1.6 1.6 0.00 0.00 0.00 54 1019.8
20260831163422 33 82 1.6 3.2 0.00 0.00 0.00 55 1019.8
20260831162921 32 282 6.4 9.7 0.00 0.00 0.00 56 1019.9
20260831162416 32 172 6.4 11.3 0.00 0.00 0.00 56 1019.6
20260831161915 32 197 6.4 6.4 0.00 0.00 0.00 55 1019.8
20260831161412 32 350 8.0 11.3 0.00 0.00 0.00 58 1019.8
20260831160907 32 14 4.8 4.8 0.00 0.00 0.00 57 1019.8
20260831160401 32 195 3.2 4.8 0.00 0.00 0.00 58 1019.9
20260831155857 32 203 4.8 4.8 0.00 0.00 0.00 58 1019.8
20260831155356 32 239 3.2 6.4 0.00 0.00 0.00 61 1019.8
20260831154852 31 319 4.8 6.4 0.00 0.00 0.00 60 1019.7
20260831154348 32 262 6.4 6.4 0.00 0.00 0.00 58 1019.8
20260831153846 32 30 4.8 9.7 0.00 0.00 0.00 59 1019.8
20260831153343 31 288 3.2 4.8 0.00 0.00 0.00 61 1019.8
20260831152838 32 231 4.8 4.8 0.00 0.00 0.00 61 1019.6
20260831152334 31 106 3.2 4.8 0.00 0.00 0.00 62 1019.9
20260831151829 31 101 1.6 3.2 0.00 0.00 0.00 62 1019.8
20260831151328 31 244 4.8 4.8 0.00 0.00 0.00 62 1019.8
20260831150823 31 357 1.6 3.2 0.00 0.00 0.00 63 1019.8
20260831150319 31 334 4.8 4.8 0.00 0.00 0.00 63 1019.7
20260831145818 31 71 1.6 3.2 0.00 0.00 0.00 64 1019.7
20260831145315 31 122 4.8 4.8 0.00 0.00 0.00 63 1019.6
20260831144810 31 270 1.6 3.2 0.00 0.00 0.00 64 1019.9
20260831144306 30 302 3.2 4.8 0.00 0.00 0.00 65 1019.7
20260831143805 30 126 3.2 4.8 0.00 0.00 0.00 66 1019.7
20260831143301 30 66 0.0 1.6 0.00 0.00 0.00 67 1019.7
20260831142756 30 28 0.0 1.6 0.00 0.00 0.00 67 1019.6
20260831142251 30 256 4.8 4.8 0.00 0.00 0.00 68 1019.8
20260831141751 29 37 3.2 3.2 0.00 0.00 0.00 69 1019.5
20260831141251 29 144 4.8 4.8 0.00 0.00 0.00 69 1019.6
20260831140747 29 289 1.6 4.8 0.00 0.00 0.00 69 1019.4
20260831140246 28 138 3.2 3.2 0.00 0.00 0.00 70 1019.4
20260831135743 28 54 0.0 0.0 0.00 0.00 0.00 72 1019.4
20260831135240 28 60 0.0 0.0 0.00 0.00 0.00 73 1019.5
20260831134735 28 14 6.4 6.4 0.00 0.00 0.00 72 1019.3
20260831134232 28 314 3.2 3.2 0.00 0.00 0.00 72 1019.3
20260831133730 28 60 0.0 0.0 0.00 0.00 0.00 74 1019.2
20260831133225 27 45 0.0 0.0 0.00 0.00 0.00 75 1019.1
20260831132720 27 263 4.8 4.8 0.00 0.00 0.00 77 1019.2
20260831132215 26 62 1.6 1.6 0.00 0.00 0.00 78 1019.3
20260831131715 27 240 3.2 3.2 0.00 0.00 0.00 77 1019.4
20260831131212 27 185 1.6 3.2 0.00 0.00 0.00 78 1019.3
20260831130712 26 179 1.6 3.2 0.00 0.00 0.00 79 1019.1
20260831130208 26 61 3.2 4.8 0.00 0.00 0.00 81 1019.1
20260831125706 26 54 0.0 1.6 0.00 0.00 0.00 82 1019.1
20260831125202 26 50 0.0 1.6 0.00 0.00 0.00 83 1018.8
20260831124657 25 199 1.6 3.2 0.00 0.00 0.00 84 1018.8
20260831124153 25 73 0.0 0.0 0.00 0.00 0.00 85 1018.9
20260831123653 25 62 0.0 0.0 0.00 0.00 0.00 88 1018.8
20260831123152 23 62 0.0 0.0 0.00 0.00 0.00 90 1018.8
20260831122651 23 62 0.0 0.0 0.00 0.00 0.00 95 1018.7
20260831122148 22 62 0.0 0.0 0.00 0.00 0.00 95 1018.4
20260831121647 22 63 0.0 0.0 0.00 0.00 0.00 95 1018.7
20260831121143 22 63 0.0 0.0 0.00 0.00 0.00 95 1018.5
20260831120639 22 63 0.0 0.0 0.00 0.00 0.00 95 1018.5
20260831120133 22 63 0.0 0.0 0.00 0.00 0.00 95 1018.4
20260831115629 22 63 0.0 0.0 0.00 0.00 0.00 95 1018.5
20260831115124 22 63 0.0 0.0 0.00 0.00 0.00 95 1018.4
20260831114624 22 63 0.0 0.0 0.00 0.00 0.00 95 1018.3
20260831114119 22 63 0.0 0.0 0.00 0.00 0.00 95 1018.2
20260831113618 22 63 0.0 0.0 0.00 0.00 0.00 95 1018.2
20260831113113 22 63 0.0 0.0 0.00 0.00 0.00 95 1018.2
20260831112612 22 63 0.0 0.0 0.00 0.00 0.00 95 1018.2
20260831112108 22 63 0.0 0.0 0.00 0.00 0.00 95 1018.4
20260831111604 22 63 0.0 0.0 0.00 0.00 0.00 94 1018.2
20260831111059 22 63 0.0 0.0 0.00 0.00 0.00 94 1018.2
20260831110554 22 63 0.0 0.0 0.00 0.00 0.00 94 1018.1
20260831110049 22 63 0.0 0.0 0.00 0.00 0.00 93 1018.2
20260831105549 22 63 0.0 0.0 0.00 0.00 0.00 93 1018.0
20260831105043 22 63 0.0 0.0 0.00 0.00 0.00 93 1018.3
20260831104540 22 63 0.0 0.0 0.00 0.00 0.00 93 1017.9
20260831104036 22 63 0.0 0.0 0.00 0.00 0.00 93 1018.0
20260831103531 22 63 0.0 0.0 0.00 0.00 0.00 93 1017.9
20260831103027 22 63 0.0 0.0 0.00 0.00 0.00 93 1017.7
20260831102526 22 63 0.0 0.0 0.00 0.00 0.00 93 1018.0
20260831102021 22 63 0.0 0.0 0.00 0.00 0.00 93 1017.7
20260831101517 22 63 0.0 0.0 0.00 0.00 0.00 93 1017.7
20260831101013 22 63 0.0 0.0 0.00 0.00 0.00 93 1017.8
20260831100509 22 63 0.0 0.0 0.00 0.00 0.00 93 1017.8
20260831100004 22 63 0.0 0.0 0.00 0.00 0.00 93 1017.6
20260831095503 22 63 0.0 0.0 0.00 0.00 0.00 93 1017.7
20260831094957 22 63 0.0 0.0 0.00 0.00 0.00 93 1017.6
20260831094454 22 63 0.0 0.0 0.00 0.00 0.00 92 1017.5
20260831093949 22 63 0.0 0.0 0.00 0.00 0.00 92 1017.4
20260831093444 22 63 0.0 0.0 0.00 0.00 0.00 92 1017.4
20260831092941 22 63 0.0 0.0 0.00 0.00 0.00 92 1017.4
20260831092436 22 63 0.0 0.0 0.00 0.00 0.00 92 1017.4
20260831091931 22 63 0.0 0.0 0.00 0.00 0.00 92 1017.4
20260831091427 22 63 0.0 0.0 0.00 0.00 0.00 92 1017.3
20260831090922 22 63 0.0 0.0 0.00 0.00 0.00 92 1017.4
20260831090418 23 62 0.0 0.0 0.00 0.00 0.00 92 1017.2
20260831085914 23 62 0.0 0.0 0.00 0.00 0.00 91 1017.1
20260831085408 23 62 0.0 0.0 0.00 0.00 0.00 91 1017.1
20260831084908 23 62 0.0 0.0 0.00 0.00 0.00 91 1017.1
20260831084404 23 62 0.0 0.0 0.00 0.00 0.00 91 1016.9
20260831083900 23 62 0.0 0.0 0.00 0.00 0.00 91 1017.2
20260831083355 23 62 0.0 0.0 0.00 0.00 0.00 91 1017.2
20260831082854 23 62 0.0 0.0 0.00 0.00 0.00 91 1017.0
20260831082349 23 62 0.0 0.0 0.00 0.00 0.00 90 1017.0
20260831081845 23 62 0.0 0.0 0.00 0.00 0.00 91 1016.9
20260831081340 23 62 0.0 0.0 0.00 0.00 0.00 90 1017.0
20260831080836 23 62 0.0 0.0 0.00 0.00 0.00 90 1016.7
20260831080336 23 62 0.0 0.0 0.00 0.00 0.00 90 1016.8
20260831075832 23 62 0.0 0.0 0.00 0.00 0.00 90 1016.8
20260831075326 23 62 0.0 0.0 0.00 0.00 0.00 90 1017.1
20260831074821 23 62 0.0 0.0 0.00 0.00 0.00 90 1017.2
20260831074320 23 62 0.0 0.0 0.00 0.00 0.00 90 1017.0
20260831073816 23 62 0.0 0.0 0.00 0.00 0.00 90 1016.9
20260831073315 23 62 0.0 0.0 0.00 0.00 0.00 90 1016.9
20260831072811 23 62 0.0 0.0 0.00 0.00 0.00 89 1017.2
20260831072307 23 62 0.0 0.0 0.00 0.00 0.00 89 1017.2
20260831071802 23 62 0.0 0.0 0.00 0.00 0.00 89 1017.0
20260831071256 23 61 0.0 0.0 0.00 0.00 0.00 90 1017.2
20260831070756 23 62 0.0 0.0 0.00 0.00 0.00 90 1017.1
20260831070255 23 61 0.0 0.0 0.00 0.00 0.00 90 1017.0
20260831065754 23 62 0.0 0.0 0.00 0.00 0.00 90 1017.1
20260831065252 23 62 0.0 0.0 0.00 0.00 0.00 90 1017.2
20260831064748 23 62 0.0 0.0 0.00 0.00 0.00 90 1017.3
20260831064243 23 61 0.0 0.0 0.00 0.00 0.00 90 1017.1
20260831063739 23 61 0.0 0.0 0.00 0.00 0.00 90 1017.2
20260831063234 23 62 0.0 0.0 0.00 0.00 0.00 89 1017.2
20260831062733 23 61 0.0 0.0 0.00 0.00 0.00 89 1017.0
20260831062229 24 61 0.0 0.0 0.00 0.00 0.00 88 1017.1
20260831061726 24 61 0.0 0.0 0.00 0.00 0.00 88 1017.1
20260831061222 24 62 0.0 0.0 0.00 0.00 0.00 88 1017.1
20260831060719 24 62 0.0 0.0 0.00 0.00 0.00 87 1017.0
20260831060219 24 61 0.0 0.0 0.00 0.00 0.00 88 1017.3
20260831055718 24 61 0.0 0.0 0.00 0.00 0.00 88 1017.2
20260831055213 24 61 0.0 0.0 0.00 0.00 0.00 88 1017.2
20260831054713 24 61 0.0 0.0 0.00 0.00 0.00 88 1017.3
20260831054209 24 61 0.0 0.0 0.00 0.00 0.00 88 1017.3
20260831053708 25 61 0.0 0.0 0.00 0.00 0.00 87 1017.4
20260831053206 25 62 0.0 0.0 0.00 0.00 0.00 87 1017.2
20260831052706 25 61 0.0 0.0 0.00 0.00 0.00 87 1017.3
20260831052206 25 61 0.0 0.0 0.00 0.00 0.00 87 1017.2
20260831051704 25 61 0.0 0.0 0.00 0.00 0.00 87 1017.5
20260831051203 25 61 0.0 0.0 0.00 0.00 0.00 86 1017.3
20260831050703 25 62 0.0 0.0 0.00 0.00 0.00 86 1017.3
20260831050202 25 61 0.0 0.0 0.00 0.00 0.00 86 1017.3
20260831045657 25 61 0.0 0.0 0.00 0.00 0.00 86 1017.3
20260831045151 25 62 0.0 0.0 0.00 0.00 0.00 85 1017.3
20260831044646 25 62 0.0 0.0 0.00 0.00 0.00 85 1017.2
20260831044141 25 62 0.0 0.0 0.00 0.00 0.00 85 1017.3
20260831043637 25 62 0.0 0.0 0.00 0.00 0.00 84 1017.3
20260831043132 25 68 0.0 0.0 0.00 0.00 0.00 84 1017.4
20260831042631 26 50 0.0 0.0 0.00 0.00 0.00 84 1017.3
20260831042126 26 50 0.0 0.0 0.00 0.00 0.00 84 1017.3
20260831041621 26 55 0.0 0.0 0.00 0.00 0.00 84 1017.4
20260831041121 26 63 0.0 0.0 0.00 0.00 0.00 84 1017.3
20260831040616 26 63 0.0 0.0 0.00 0.00 0.00 84 1017.2
20260831040115 26 62 0.0 0.0 0.00 0.00 0.00 83 1017.3
20260831035614 26 62 0.0 0.0 0.00 0.00 0.00 83 1017.2
20260831035109 26 67 0.0 0.0 0.00 0.00 0.00 83 1017.2
20260831034608 26 61 0.0 0.0 0.00 0.00 0.00 83 1017.3
20260831034103 26 61 0.0 0.0 0.00 0.00 0.00 83 1017.0
20260831033558 26 61 0.0 0.0 0.00 0.00 0.00 83 1017.0
20260831033048 26 62 0.0 0.0 0.00 0.00 0.00 82 1017.2
20260831032547 26 62 0.0 0.0 0.00 0.00 0.00 82 1017.1
20260831032043 26 61 0.0 0.0 0.00 0.00 0.00 81 1017.1
20260831031542 26 61 0.0 0.0 0.00 0.00 0.00 81 1017.3
20260831031042 26 62 0.0 0.0 0.00 0.00 0.00 81 1017.0
20260831030541 26 63 0.0 0.0 0.00 0.00 0.00 80 1017.1
20260831030040 27 56 0.0 0.0 0.00 0.00 0.00 80 1017.0
20260831025538 27 56 0.0 0.0 0.00 0.00 0.00 79 1017.0
20260831025034 27 67 0.0 0.0 0.00 0.00 0.00 79 1017.0
20260831024530 27 108 1.6 3.2 0.00 0.00 0.00 78 1017.1
20260831024029 27 42 0.0 0.0 0.00 0.00 0.00 78 1017.0
20260831023528 27 49 0.0 0.0 0.00 0.00 0.00 78 1016.9
20260831023027 27 56 0.0 0.0 0.00 0.00 0.00 77 1017.0
20260831022527 27 53 0.0 1.6 0.00 0.00 0.00 77 1017.1
20260831022023 27 53 0.0 0.0 0.00 0.00 0.00 77 1017.0
20260831021521 27 67 0.0 0.0 0.00 0.00 0.00 76 1016.9
20260831021018 27 58 0.0 0.0 0.00 0.00 0.00 77 1016.8
20260831020513 27 68 0.0 0.0 0.00 0.00 0.00 76 1016.9
20260831020007 27 70 0.0 1.6 0.00 0.00 0.00 76 1016.9
20260831015503 27 71 0.0 0.0 0.00 0.00 0.00 76 1016.7
20260831014958 28 70 0.0 0.0 0.00 0.00 0.00 76 1016.6
20260831014452 28 71 0.0 0.0 0.00 0.00 0.00 76 1016.4
20260831013948 28 69 0.0 0.0 0.00 0.00 0.00 75 1016.6
20260831013443 27 54 0.0 0.0 0.00 0.00 0.00 75 1016.4
20260831012938 27 57 0.0 0.0 0.00 0.00 0.00 76 1016.1
20260831012433 27 57 0.0 0.0 0.00 0.00 0.00 75 1016.1
20260831011932 28 50 0.0 0.0 0.00 0.00 0.00 76 1016.1
20260831011427 27 73 1.6 1.6 0.00 0.00 0.00 75 1016.1
20260831010923 28 62 0.0 0.0 0.00 0.00 0.00 75 1016.0
20260831010418 28 62 0.0 0.0 0.00 0.00 0.00 74 1016.0
20260831005913 28 62 0.0 0.0 0.00 0.00 0.00 73 1015.9
20260831005409 28 62 0.0 0.0 0.00 0.00 0.00 72 1016.0
20260831004903 28 62 0.0 0.0 0.00 0.00 0.00 71 1016.1
20260831004359 29 62 0.0 0.0 0.00 0.00 0.00 70 1016.0
20260831003855 29 56 0.0 0.0 0.00 0.00 0.00 70 1015.9
20260831003351 29 61 0.0 0.0 0.00 0.00 0.00 69 1015.9
20260831002850 29 69 0.0 0.0 0.00 0.00 0.00 68 1016.1
20260831002349 30 60 0.0 0.0 0.00 0.00 0.00 67 1016.1
20260831001845 30 61 0.0 0.0 0.00 0.00 0.00 66 1016.1
20260831001345 30 69 0.0 0.0 0.00 0.00 0.00 65 1016.1
20260831000843 30 67 0.0 1.6 0.00 0.00 0.00 65 1016.1
20260831000340 30 60 0.0 0.0 0.00 0.00 0.00 64 1016.3
20260830235836 30 61 0.0 0.0 0.00 0.00 0.00 62 1016.4
20260830235331 30 54 0.0 0.0 0.00 0.00 0.00 63 1016.0
20260830234827 31 54 0.0 0.0 0.00 0.00 0.00 63 1016.1
20260830234322 31 54 0.0 0.0 0.00 0.00 0.00 61 1015.9
20260830233818 31 52 0.0 0.0 0.00 0.00 0.00 59 1015.8
20260830233313 32 67 0.0 0.0 0.00 0.00 0.00 62 1015.9
20260830232808 32 60 0.0 0.0 0.00 0.00 0.00 57 1016.0
20260830232306 32 47 0.0 0.0 0.00 0.00 0.00 56 1015.9
20260830231800 32 54 0.0 0.0 0.00 0.00 0.00 57 1016.0
20260830231300 32 50 0.0 0.0 0.00 0.00 0.00 54 1016.0
20260830230755 33 61 0.0 0.0 0.00 0.00 0.00 53 1016.0
20260830230250 33 60 0.0 0.0 0.00 0.00 0.00 55 1016.0
20260830225750 33 64 0.0 0.0 0.00 0.00 0.00 52 1016.0
20260830225245 33 73 0.0 1.6 0.00 0.00 0.00 52 1015.9
20260830224744 33 49 0.0 1.6 0.00 0.00 0.00 52 1016.1
20260830224239 34 221 4.8 4.8 0.00 0.00 0.00 50 1015.9
20260830223736 34 58 0.0 0.0 0.00 0.00 0.00 49 1015.8
20260830223232 33 84 1.6 1.6 0.00 0.00 0.00 49 1015.8
20260830222726 33 57 0.0 0.0 0.00 0.00 0.00 51 1015.8
20260830222221 33 50 0.0 0.0 0.00 0.00 0.00 58 1015.9
20260830221717 32 48 0.0 0.0 0.00 0.00 0.00 53 1015.8
20260830221214 33 67 0.0 1.6 0.00 0.00 0.00 51 1015.9
20260830220709 34 51 1.6 1.6 0.00 0.00 0.00 49 1015.9
20260830220207 35 38 1.6 1.6 0.00 0.00 0.00 47 1015.9
20260830215707 35 213 3.2 6.4 0.00 0.00 0.00 44 1015.8
20260830215201 35 66 0.0 1.6 0.00 0.00 0.00 47 1015.9
20260830214657 35 43 1.6 3.2 0.00 0.00 0.00 47 1015.8
20260830214156 35 79 4.8 6.4 0.00 0.00 0.00 47 1016.0
20260830213656 35 53 1.6 3.2 0.00 0.00 0.00 45 1016.0
20260830213151 36 60 1.6 3.2 0.00 0.00 0.00 48 1016.1
20260830212647 35 46 4.8 6.4 0.00 0.00 0.00 45 1016.1
20260830212142 35 72 1.6 1.6 0.00 0.00 0.00 49 1016.4
20260830211637 35 46 0.0 0.0 0.00 0.00 0.00 45 1016.5
20260830211136 36 139 3.2 3.2 0.00 0.00 0.00 46 1016.5
20260830210632 36 9 3.2 3.2 0.00 0.00 0.00 45 1016.4
20260830210131 36 39 1.6 1.6 0.00 0.00 0.00 45 1016.5
20260830205628 35 46 3.2 4.8 0.00 0.00 0.00 42 1016.5
20260830205124 36 210 3.2 3.2 0.00 0.00 0.00 44 1016.5
20260830204624 36 28 3.2 3.2 0.00 0.00 0.00 43 1016.4
20260830204122 36 273 3.2 6.4 0.00 0.00 0.00 45 1016.3
20260830203619 36 48 1.6 1.6 0.00 0.00 0.00 44 1016.6
20260830203119 36 196 3.2 3.2 0.00 0.00 0.00 44 1016.7
20260830202619 36 53 0.0 1.6 0.00 0.00 0.00 41 1016.8
20260830202114 36 15 3.2 3.2 0.00 0.00 0.00 42 1016.8
20260830201613 36 279 6.4 6.4 0.00 0.00 0.00 47 1017.1
20260830201108 35 194 6.4 9.7 0.00 0.00 0.00 47 1017.0
20260830200604 35 100 1.6 3.2 0.00 0.00 0.00 47 1017.1
20260830200103 35 67 1.6 3.2 0.00 0.00 0.00 46 1016.9
20260830195559 35 287 8.0 11.3 0.00 0.00 0.00 44 1017.1
20260830195056 35 76 1.6 3.2 0.00 0.00 0.00 47 1017.1
20260830194551 35 117 3.2 3.2 0.00 0.00 0.00 46 1017.0
20260830194051 34 357 3.2 3.2 0.00 0.00 0.00 49 1017.2
20260830193550 35 18 3.2 4.8 0.00 0.00 0.00 47 1017.3
20260830193045 35 33 1.6 3.2 0.00 0.00 0.00 47 1017.3
20260830192541 35 75 3.2 4.8 0.00 0.00 0.00 45 1017.5
20260830192036 33 51 1.6 1.6 0.00 0.00 0.00 53 1017.4
20260830191531 33 101 0.0 3.2 0.00 0.00 0.00 50 1017.7
20260830191026 33 14 3.2 3.2 0.00 0.00 0.00 48 1017.7
20260830190521 35 32 3.2 3.2 0.00 0.00 0.00 47 1017.7
20260830190016 35 90 4.8 4.8 0.00 0.00 0.00 45 1017.5
20260830185510 34 35 3.2 4.8 0.00 0.00 0.00 47 1017.6
20260830185006 34 46 1.6 3.2 0.00 0.00 0.00 51 1018.0
20260830184504 34 269 6.4 6.4 0.00 0.00 0.00 46 1018.0
20260830184000 34 302 9.7 12.9 0.00 0.00 0.00 45 1018.0
20260830183459 35 318 9.7 12.9 0.00 0.00 0.00 45 1018.0
20260830182949 33 265 1.6 4.8 0.00 0.00 0.00 51 1017.9
20260830182444 33 197 1.6 4.8 0.00 0.00 0.00 47 1018.3
20260830181940 33 342 4.8 4.8 0.00 0.00 0.00 47 1018.2
20260830181437 33 14 4.8 6.4 0.00 0.00 0.00 46 1018.5
20260830180930 33 297 4.8 6.4 0.00 0.00 0.00 44 1018.3
20260830180430 33 325 3.2 6.4 0.00 0.00 0.00 47 1018.2
20260830175929 34 86 1.6 3.2 0.00 0.00 0.00 48 1018.3
20260830175429 34 256 8.0 12.9 0.00 0.00 0.00 46 1018.4
20260830174924 33 29 1.6 1.6 0.00 0.00 0.00 48 1018.3
20260830174420 33 254 6.4 9.7 0.00 0.00 0.00 48 1018.3
20260830173915 33 152 3.2 3.2 0.00 0.00 0.00 49 1018.3
20260830173410 33 313 4.8 4.8 0.00 0.00 0.00 50 1018.4
20260830172906 33 317 9.7 12.9 0.00 0.00 0.00 48 1018.4
20260830172402 33 244 9.7 12.9 0.00 0.00 0.00 50 1018.5
20260830171857 33 33 6.4 11.3 0.00 0.00 0.00 47 1018.5
20260830171353 33 127 1.6 3.2 0.00 0.00 0.00 51 1018.6
20260830170848 33 318 11.3 12.9 0.00 0.00 0.00 48 1018.6